This demonstration page uses our WeatherBlox Daily Observations layout. Learn more.

Left ArrowRight Arrow

47.50024, -111.30081

Hourly Observations for November 15, 2015

Temp ( °F °C ) Dew Point ( °F °C ) Humidity (%) Winds ( mph kmh ) Pressure ( in mb ) Visibility ( mi km ) Precip ( " mm )
12:53 am 00:53 Clear 50 10 22 -5.6 33 33 S 20 31 29.67 1005 10 16 0.00 0.00
1:53 am 01:53 Clear 43 6.1 22 -5.6 43 43 SSW 13 20 29.68 1005 10 16 0.00 0.00
2:53 am 02:53 Clear 47 8.3 21 -6.1 36 36 SSW 12 19 29.67 1005 10 16 0.00 0.00
3:53 am 03:53 Clear 46 7.8 21 -6.1 37 37 S 15 24 29.66 1004 10 16 0.00 0.00
4:53 am 04:53 Clear 48 8.9 21 -6.1 34 34 S 17 28 29.65 1004 10 16 0.00 0.00
5:53 am 05:53 Clear 45 7.2 20 -6.7 37 37 S 9 15 29.65 1004 10 16 0.00 0.00
6:53 am 06:53 Clear 46 7.8 19 -7.2 34 34 S 10 17 29.65 1004 10 16 0.00 0.00
7:53 am 07:53 Sunny 47 8.3 19 -7.2 33 33 S 16 26 29.63 1003 10 16 0.00 0.00
8:53 am 08:53 Sunny 49 9.4 19 -7.2 31 31 S 18 30 29.60 1002 10 16 0.00 0.00
9:53 am 09:53 Sunny 52 11.1 19 -7.2 27 27 S 17 28 29.58 1002 10 16 0.00 0.00
10:53 am 10:53 Sunny 53 11.7 19 -7.2 26 26 S 17 28 29.55 1001 10 16 0.00 0.00
11:53 am 11:53 Sunny 55 12.8 19 -7.2 24 24 S 20 31 29.52 1000 10 16 0.00 0.00
12:53 pm 12:53 Sunny 56 13.3 17 -8.3 22 22 S 20 31 29.49 999 10 16 0.00 0.00
1:53 pm 13:53 Sunny 55 12.8 19 -7.2 24 24 S 17 28 29.49 999 10 16 0.00 0.00
2:53 pm 14:53 Cloudy 55 12.8 18 -7.8 23 23 S 16 26 29.46 998 10 16 0.00 0.00
3:53 pm 15:53 Cloudy 54 12.2 19 -7.2 25 25 SSW 12 19 29.46 998 10 16 0.00 0.00
4:53 pm 16:53 Mostly Cloudy 53 11.7 19 -7.2 26 26 S 16 26 29.44 997 10 16 0.00 0.00
5:53 pm 17:53 Partly Cloudy 52 11.1 19 -7.2 27 27 SSW 14 22 29.44 997 10 16 0.00 0.00
6:53 pm 18:53 Clear 49 9.4 20 -6.7 32 32 SSW 16 26 29.43 997 10 16 0.00 0.00
7:53 pm 19:53 Clear 46 7.8 21 -6.1 37 37 SSW 10 17 29.44 997 10 16 0.00 0.00
8:53 pm 20:53 Clear 45 7.2 21 -6.1 39 39 SSW 9 15 29.44 997 10 16 0.00 0.00
9:53 pm 21:53 Clear 46 7.8 20 -6.7 35 35 SSW 12 19 29.42 996 10 16 0.00 0.00
10:53 pm 22:53 Clear 45 7.2 21 -6.1 39 39 SSW 15 24 29.43 997 10 16 0.00 0.00
11:53 pm 23:53 Clear 40 4.4 21 -6.1 47 47 SW 12 19 29.44 997 10 16 0.00 0.00

Powered by AerisWeather